Hourly Weather Barnsley

Today, 21 September, Monday

Time Temperature Precipitation Wind Pressure Humidity
00:00 +10°C° 0 mm 0 mps 755 mmHg 90%
01:00 +10°C° 0 mm 0 mps 754 mmHg 91%
02:00 +9°C° 0 mm 0 mps 754 mmHg 91%
03:00 +10°C° 0 mm 1 mps 753 mmHg 91%
04:00 +9°C° 0 mm 0 mps 753 mmHg 91%
05:00 +9°C° 0 mm 0 mps 753 mmHg 90%
06:00 +9°C° 0 mm 0 mps 753 mmHg 90%
07:00 +11°C° 0 mm 1 mps 753 mmHg 84%
08:00 +13°C° 0 mm 1 mps 753 mmHg 79%
09:00 +15°C° 0 mm 1 mps 753 mmHg 73%
10:00 +16°C° 0 mm 2 mps 752 mmHg 68%
11:00 +18°C° 0 mm 2 mps 752 mmHg 62%
12:00 +19°C° 0 mm 2 mps 752 mmHg 56%
13:00 +20°C° 0 mm 3 mps 752 mmHg 56%
14:00 +20°C° 0 mm 3 mps 751 mmHg 55%
15:00 +20°C° 0 mm 3 mps 751 mmHg 54%
16:00 +19°C° 0 mm 3 mps 751 mmHg 59%
17:00 +17°C° 0 mm 3 mps 750 mmHg 64%
18:00 +16°C° 0 mm 2 mps 750 mmHg 69%
19:00 +15°C° 0 mm 2 mps 750 mmHg 71%
20:00 +15°C° 0 mm 2 mps 750 mmHg 73%
21:00 +14°C° 0 mm 2 mps 750 mmHg 75%
22:00 +14°C° 0 mm 2 mps 750 mmHg 76%
23:00 +14°C° 0 mm 1 mps 749 mmHg 78%

Tomorrow, 22 September, Tuesday

Time Temperature Precipitation Wind Pressure Humidity
00:00 +13°C° 0 mm 1 mps 749 mmHg 80%
01:00 +13°C° 0 mm 1 mps 749 mmHg 81%
02:00 +13°C° 0 mm 1 mps 748 mmHg 81%
03:00 +13°C° 0 mm 1 mps 748 mmHg 82%
04:00 +13°C° 0 mm 1 mps 747 mmHg 83%
05:00 +13°C° 0 mm 1 mps 747 mmHg 84%
06:00 +13°C° 0 mm 1 mps 746 mmHg 84%
07:00 +15°C° 0 mm 2 mps 746 mmHg 80%
08:00 +16°C° 0 mm 2 mps 746 mmHg 76%
09:00 +18°C° 0 mm 3 mps 745 mmHg 71%
10:00 +19°C° 0 mm 4 mps 745 mmHg 68%
11:00 +21°C° 0 mm 4 mps 744 mmHg 64%
12:00 +22°C° 0 mm 5 mps 744 mmHg 61%
13:00 +22°C° 0 mm 5 mps 743 mmHg 62%
14:00 +22°C° 0 mm 6 mps 743 mmHg 63%
15:00 +22°C° 0 mm 6 mps 742 mmHg 64%
16:00 +21°C° 0.1 mm 5 mps 742 mmHg 68%
17:00 +20°C° 0.1 mm 5 mps 742 mmHg 73%
18:00 +19°C° 0.1 mm 4 mps 742 mmHg 77%
19:00 +18°C° 0 mm 4 mps 741 mmHg 78%
20:00 +17°C° 0 mm 4 mps 741 mmHg 80%
21:00 +15°C° 0 mm 4 mps 741 mmHg 81%
22:00 +16°C° 0 mm 3 mps 741 mmHg 82%
23:00 +14°C° 0 mm 3 mps 741 mmHg 83%

Day after tomorrow, 23 September, Wednesday

Time Temperature Precipitation Wind Pressure Humidity
00:00 +14°C° 0 mm 3 mps 741 mmHg 84%
01:00 +13°C° 0 mm 3 mps 740 mmHg 85%
02:00 +13°C° 0 mm 3 mps 740 mmHg 86%
03:00 +13°C° 0 mm 3 mps 740 mmHg 87%
04:00 +13°C° 0.1 mm 3 mps 740 mmHg 86%
05:00 +14°C° 0.1 mm 2 mps 740 mmHg 86%
06:00 +14°C° 0.1 mm 2 mps 740 mmHg 86%
07:00 +14°C° 0.4 mm 2 mps 740 mmHg 84%
08:00 +13°C° 0.4 mm 2 mps 740 mmHg 83%
09:00 +13°C° 0.4 mm 2 mps 740 mmHg 81%
10:00 +13°C° 0.1 mm 2 mps 740 mmHg 78%
11:00 +14°C° 0.1 mm 2 mps 740 mmHg 74%
12:00 +14°C° 0.1 mm 2 mps 740 mmHg 71%
13:00 +14°C° 0 mm 2 mps 739 mmHg 70%
14:00 +14°C° 0 mm 2 mps 739 mmHg 68%
15:00 +14°C° 0 mm 2 mps 739 mmHg 67%
16:00 +12°C° 0.4 mm 3 mps 738 mmHg 71%
17:00 +11°C° 0.4 mm 3 mps 738 mmHg 75%
18:00 +10°C° 0.4 mm 3 mps 738 mmHg 78%
19:00 +10°C° 0.6 mm 3 mps 737 mmHg 77%
20:00 +10°C° 0.6 mm 3 mps 737 mmHg 76%
21:00 +8°C° 0.6 mm 4 mps 737 mmHg 74%
22:00 +8°C° 0.1 mm 4 mps 737 mmHg 75%
23:00 +8°C° 0.1 mm 4 mps 737 mmHg 76%

24 September, Thursday

Time Temperature Precipitation Wind Pressure Humidity
00:00 +7°C° 0.1 mm 5 mps 737 mmHg 78%
01:00 +7°C° 0 mm 5 mps 737 mmHg 77%
02:00 +7°C° 0 mm 5 mps 737 mmHg 77%
03:00 +6°C° 0 mm 4 mps 738 mmHg 77%
04:00 +6°C° 0 mm 4 mps 738 mmHg 78%
05:00 +7°C° 0 mm 3 mps 738 mmHg 79%
06:00 +7°C° 0 mm 3 mps 738 mmHg 80%
07:00 +8°C° 0 mm 3 mps 738 mmHg 77%
08:00 +9°C° 0 mm 3 mps 738 mmHg 73%
09:00 +10°C° 0 mm 3 mps 738 mmHg 69%
10:00 +10°C° 0.3 mm 4 mps 737 mmHg 70%
11:00 +9°C° 0.3 mm 5 mps 736 mmHg 71%
12:00 +10°C° 0.3 mm 5 mps 736 mmHg 72%
13:00 +10°C° 0.8 mm 5 mps 735 mmHg 70%
14:00 +12°C° 0.8 mm 5 mps 734 mmHg 68%
15:00 +12°C° 0.8 mm 4 mps 733 mmHg 66%
16:00 +11°C° 0.7 mm 3 mps 733 mmHg 70%
17:00 +10°C° 0.7 mm 3 mps 733 mmHg 74%
18:00 +9°C° 0.7 mm 2 mps 732 mmHg 77%
19:00 +9°C° 0.6 mm 2 mps 733 mmHg 80%
20:00 +9°C° 0.6 mm 2 mps 733 mmHg 82%
21:00 +8°C° 0.6 mm 3 mps 734 mmHg 84%
22:00 +7°C° 0.2 mm 4 mps 734 mmHg 84%
23:00 +7°C° 0.2 mm 5 mps 735 mmHg 84%

25 September, Friday

Time Temperature Precipitation Wind Pressure Humidity
00:00 +7°C° 0.2 mm 6 mps 735 mmHg 84%
01:00 +7°C° 0.3 mm 6 mps 736 mmHg 83%
02:00 +5°C° 0.3 mm 7 mps 736 mmHg 83%
03:00 +5°C° 0.3 mm 7 mps 737 mmHg 82%
04:00 +5°C° 0.2 mm 7 mps 738 mmHg 81%
05:00 +5°C° 0.2 mm 6 mps 739 mmHg 80%
06:00 +5°C° 0.2 mm 6 mps 740 mmHg 79%
07:00 +7°C° 0.1 mm 6 mps 741 mmHg 78%
08:00 +7°C° 0.1 mm 6 mps 741 mmHg 77%
09:00 +6°C° 0.1 mm 7 mps 742 mmHg 76%
10:00 +8°C° 0 mm 7 mps 743 mmHg 70%
11:00 +9°C° 0 mm 7 mps 744 mmHg 65%
12:00 +10°C° 0 mm 8 mps 744 mmHg 59%
13:00 +10°C° 0.1 mm 8 mps 745 mmHg 58%
14:00 +10°C° 0.1 mm 8 mps 745 mmHg 58%
15:00 +10°C° 0.1 mm 8 mps 746 mmHg 57%
16:00 +10°C° 0 mm 7 mps 746 mmHg 60%
17:00 +9°C° 0 mm 7 mps 747 mmHg 62%
18:00 +8°C° 0 mm 6 mps 747 mmHg 65%
19:00 +7°C° 0 mm 6 mps 748 mmHg 66%
20:00 +7°C° 0 mm 6 mps 748 mmHg 68%
21:00 +5°C° 0 mm 6 mps 749 mmHg 70%
22:00 +5°C° 0 mm 6 mps 749 mmHg 71%
23:00 +5°C° 0 mm 6 mps 749 mmHg 71%

26 September, Saturday

Time Temperature Precipitation Wind Pressure Humidity
00:00 +4°C° 0 mm 6 mps 749 mmHg 72%
01:00 +4°C° 0 mm 6 mps 749 mmHg 73%
02:00 +4°C° 0 mm 6 mps 749 mmHg 73%
03:00 +3°C° 0 mm 6 mps 749 mmHg 74%
04:00 +3°C° 0 mm 5 mps 749 mmHg 74%
05:00 +3°C° 0 mm 5 mps 749 mmHg 74%
06:00 +3°C° 0 mm 5 mps 749 mmHg 74%
07:00 +5°C° 0 mm 5 mps 749 mmHg 70%
08:00 +6°C° 0 mm 5 mps 749 mmHg 66%
09:00 +7°C° 0 mm 5 mps 749 mmHg 62%
10:00 +8°C° 0 mm 5 mps 748 mmHg 59%
11:00 +8°C° 0 mm 5 mps 748 mmHg 55%
12:00 +10°C° 0 mm 4 mps 748 mmHg 52%
13:00 +11°C° 0 mm 4 mps 748 mmHg 51%
14:00 +11°C° 0 mm 4 mps 748 mmHg 51%
15:00 +11°C° 0 mm 4 mps 748 mmHg 50%
16:00 +10°C° 0 mm 3 mps 748 mmHg 54%
17:00 +9°C° 0 mm 3 mps 747 mmHg 58%
18:00 +8°C° 0 mm 2 mps 747 mmHg 62%
19:00 +7°C° 0 mm 2 mps 748 mmHg 63%
20:00 +7°C° 0 mm 2 mps 748 mmHg 64%
21:00 +6°C° 0 mm 2 mps 748 mmHg 65%
22:00 +6°C° 0 mm 2 mps 748 mmHg 66%
23:00 +5°C° 0 mm 2 mps 748 mmHg 66%
Show more